Time,TemperatureF,DewpointF,PressureIn,WindDirection,WindDirectionDegrees,WindSpeedMPH,WindSpeedGustMPH,Humidity,HourlyPrecipIn,Conditions,Clouds,dailyrainin,SoftwareType,DateUTC
2013-03-01 00:00:00,56.5,50.1,29.95,WSW,242,0.0,2.0,79,0.00,,---,0.00,VWS V14.01,2013-03-01 05:00:00,
2013-03-01 00:01:00,56.5,50.1,29.94,ENE,77,0.0,2.0,79,0.00,,---,0.00,VWS V14.01,2013-03-01 05:01:00,
2013-03-01 00:06:00,56.5,50.4,29.94,North,350,0.0,3.0,80,0.00,,---,0.00,VWS V14.01,2013-03-01 05:06:00,
2013-03-01 00:11:00,56.5,50.4,29.94,NNW,327,1.0,6.0,80,0.00,,---,0.00,VWS V14.01,2013-03-01 05:11:00,
2013-03-01 00:16:00,56.5,50.4,29.94,WSW,257,3.0,6.0,80,0.00,,---,0.00,VWS V14.01,2013-03-01 05:16:00,
2013-03-01 00:21:00,56.5,50.4,29.94,West,268,0.0,6.0,80,0.00,,---,0.00,VWS V14.01,2013-03-01 05:21:00,
2013-03-01 00:26:00,56.3,50.5,29.94,West,280,0.0,6.0,81,0.00,,---,0.00,VWS V14.01,2013-03-01 05:26:00,
2013-03-01 00:31:00,56.1,50.4,29.94,NNW,346,0.0,6.0,81,0.00,,---,0.00,VWS V14.01,2013-03-01 05:31:00,
2013-03-01 00:36:00,55.9,50.2,29.94,NE,40,0.0,1.0,81,0.00,,---,0.00,VWS V14.01,2013-03-01 05:36:00,
2013-03-01 00:41:00,55.7,50.3,29.94,WNW,288,0.0,3.0,82,0.00,,---,0.00,VWS V14.01,2013-03-01 05:41:00,
2013-03-01 00:46:00,55.4,50.0,29.94,SW,224,0.0,3.0,82,0.00,,---,0.00,VWS V14.01,2013-03-01 05:46:00,
2013-03-01 00:51:00,55.2,50.1,29.93,West,279,0.0,3.0,83,0.00,,---,0.00,VWS V14.01,2013-03-01 05:51:00,
2013-03-01 00:56:00,55.0,49.9,29.93,SW,219,0.0,3.0,83,0.00,,---,0.00,VWS V14.01,2013-03-01 05:56:00,
2013-03-01 01:01:00,54.8,50.1,29.93,SSW,198,0.0,3.0,84,0.00,,---,0.00,VWS V14.01,2013-03-01 06:01:00,
2013-03-01 01:06:00,54.7,50.0,29.94,WSW,255,0.0,1.0,84,0.00,,---,0.00,VWS V14.01,2013-03-01 06:06:00,
2013-03-01 01:11:00,54.6,49.9,29.94,NW,314,0.0,4.0,84,0.00,,---,0.00,VWS V14.01,2013-03-01 06:11:00,
2013-03-01 01:16:00,54.8,50.1,29.93,NW,314,0.0,4.0,84,0.00,,---,0.00,VWS V14.01,2013-03-01 06:16:00,
2013-03-01 01:22:00,54.9,50.2,29.94,WSW,257,1.0,4.0,84,0.00,,---,0.00,VWS V14.01,2013-03-01 06:22:00,
2013-03-01 01:27:00,55.1,50.4,29.94,NW,321,0.0,4.0,84,0.00,,---,0.00,VWS V14.01,2013-03-01 06:27:00,
2013-03-01 01:32:00,55.2,50.5,29.94,WSW,245,0.0,0.0,84,0.00,,---,0.00,VWS V14.01,2013-03-01 06:32:00,
2013-03-01 01:37:00,55.3,50.2,29.94,SW,235,0.0,1.0,83,0.00,,---,0.00,VWS V14.01,2013-03-01 06:37:00,
2013-03-01 01:42:00,55.4,50.3,29.93,SE,142,1.0,1.0,83,0.00,,---,0.00,VWS V14.01,2013-03-01 06:42:00,
2013-03-01 01:47:00,55.5,50.4,29.93,SW,236,2.0,2.0,83,0.00,,---,0.00,VWS V14.01,2013-03-01 06:47:00,
2013-03-01 01:52:00,55.5,50.4,29.93,WSW,246,0.0,2.0,83,0.00,,---,0.00,VWS V14.01,2013-03-01 06:52:00,
2013-03-01 01:57:00,55.6,50.5,29.93,WSW,239,0.0,2.0,83,0.00,,---,0.00,VWS V14.01,2013-03-01 06:57:00,
2013-03-01 02:02:00,55.7,50.3,29.93,WSW,250,0.0,1.0,82,0.00,,---,0.00,VWS V14.01,2013-03-01 07:02:00,
2013-03-01 02:07:00,55.7,50.3,29.93,South,176,0.0,2.0,82,0.00,,---,0.00,VWS V14.01,2013-03-01 07:07:00,
2013-03-01 02:12:00,55.7,50.3,29.93,South,174,0.0,2.0,82,0.00,,---,0.00,VWS V14.01,2013-03-01 07:12:00,
2013-03-01 02:17:00,55.7,50.3,29.93,SW,231,0.0,2.0,82,0.00,,---,0.00,VWS V14.01,2013-03-01 07:17:00,
2013-03-01 02:22:00,55.7,50.3,29.94,WNW,287,0.0,2.0,82,0.00,,---,0.00,VWS V14.01,2013-03-01 07:22:00,
2013-03-01 02:27:00,55.6,50.2,29.93,WSW,249,0.0,2.0,82,0.00,,---,0.00,VWS V14.01,2013-03-01 07:27:00,
2013-03-01 02:32:00,55.5,50.1,29.93,WNW,283,0.0,0.0,82,0.00,,---,0.00,VWS V14.01,2013-03-01 07:32:00,
2013-03-01 02:37:00,55.3,49.9,29.93,West,276,0.0,0.0,82,0.00,,---,0.00,VWS V14.01,2013-03-01 07:37:00,
2013-03-01 02:42:00,55.1,49.7,29.93,South,177,0.0,2.0,82,0.00,,---,0.00,VWS V14.01,2013-03-01 07:42:00,
2013-03-01 02:47:00,54.8,49.7,29.93,SW,231,0.0,2.0,83,0.00,,---,0.00,VWS V14.01,2013-03-01 07:47:00,
2013-03-01 02:52:00,54.6,49.5,29.93,WSW,243,0.0,2.0,83,0.00,,---,0.00,VWS V14.01,2013-03-01 07:52:00,
2013-03-01 02:57:00,54.3,49.6,29.93,WSW,246,0.0,2.0,84,0.00,,---,0.00,VWS V14.01,2013-03-01 07:57:00,
2013-03-01 03:02:00,54.0,49.3,29.92,WSW,246,0.0,0.0,84,0.00,,---,0.00,VWS V14.01,2013-03-01 08:02:00,
2013-03-01 03:07:00,53.8,49.1,29.93,WSW,246,0.0,1.0,84,0.00,,---,0.00,VWS V14.01,2013-03-01 08:07:00,
2013-03-01 03:12:00,53.5,49.1,29.93,WSW,249,0.0,1.0,85,0.00,,---,0.00,VWS V14.01,2013-03-01 08:12:00,
2013-03-01 03:17:00,53.2,48.8,29.93,WSW,249,0.0,1.0,85,0.00,,---,0.00,VWS V14.01,2013-03-01 08:17:00,
2013-03-01 03:22:00,53.0,48.9,29.92,WSW,245,0.0,1.0,86,0.00,,---,0.00,VWS V14.01,2013-03-01 08:22:00,
2013-03-01 03:28:00,53.0,48.9,29.92,WSW,245,0.0,1.0,86,0.00,,---,0.00,VWS V14.01,2013-03-01 08:28:00,
2013-03-01 03:33:00,52.9,48.8,29.92,WSW,246,0.0,0.0,86,0.00,,---,0.00,VWS V14.01,2013-03-01 08:33:00,
2013-03-01 03:38:00,53.0,48.6,29.92,WSW,253,0.0,1.0,85,0.00,,---,0.00,VWS V14.01,2013-03-01 08:38:00,
2013-03-01 03:43:00,53.0,48.6,29.92,West,267,0.0,1.0,85,0.00,,---,0.00,VWS V14.01,2013-03-01 08:43:00,
2013-03-01 03:48:00,53.0,48.6,29.92,West,269,0.0,1.0,85,0.00,,---,0.00,VWS V14.01,2013-03-01 08:48:00,
2013-03-01 03:53:00,53.1,48.7,29.92,NW,323,0.0,1.0,85,0.00,,---,0.00,VWS V14.01,2013-03-01 08:53:00,
2013-03-01 03:58:00,53.2,48.8,29.92,WNW,287,1.0,1.0,85,0.00,,---,0.00,VWS V14.01,2013-03-01 08:58:00,
2013-03-01 04:03:00,53.3,48.6,29.92,NW,318,0.0,0.0,84,0.00,,---,0.00,VWS V14.01,2013-03-01 09:03:00,
2013-03-01 04:08:00,53.3,48.6,29.92,SW,232,0.0,1.0,84,0.00,,---,0.00,VWS V14.01,2013-03-01 09:08:00,
2013-03-01 04:13:00,53.4,48.7,29.92,SW,231,0.0,1.0,84,0.00,,---,0.00,VWS V14.01,2013-03-01 09:13:00,
2013-03-01 04:18:00,53.3,48.6,29.92,SW,219,0.0,1.0,84,0.00,,---,0.00,VWS V14.01,2013-03-01 09:18:00,
2013-03-01 04:23:00,53.3,48.6,29.92,SW,219,0.0,1.0,84,0.00,,---,0.00,VWS V14.01,2013-03-01 09:23:00,
2013-03-01 04:28:00,53.3,48.6,29.91,NW,322,0.0,1.0,84,0.00,,---,0.00,VWS V14.01,2013-03-01 09:28:00,
2013-03-01 04:33:00,53.3,48.6,29.92,NW,326,0.0,0.0,84,0.00,,---,0.00,VWS V14.01,2013-03-01 09:33:00,
2013-03-01 04:39:00,53.3,48.6,29.91,North,360,0.0,3.0,84,0.00,,---,0.00,VWS V14.01,2013-03-01 09:39:00,
2013-03-01 04:44:00,53.3,48.6,29.91,NW,326,0.0,3.0,84,0.00,,---,0.00,VWS V14.01,2013-03-01 09:44:00,
2013-03-01 04:49:00,53.4,48.7,29.91,NW,325,0.0,4.0,84,0.00,,---,0.00,VWS V14.01,2013-03-01 09:49:00,
2013-03-01 04:54:00,53.4,48.4,29.90,NNW,332,1.0,5.0,83,0.00,,---,0.00,VWS V14.01,2013-03-01 09:54:00,
2013-03-01 04:59:00,53.4,48.7,29.91,NNW,335,0.0,5.0,84,0.00,,---,0.00,VWS V14.01,2013-03-01 09:59:00,
2013-03-01 05:04:00,53.4,48.7,29.91,NW,316,0.0,2.0,84,0.00,,---,0.00,VWS V14.01,2013-03-01 10:04:00,
2013-03-01 05:09:00,53.2,48.5,29.91,NNW,336,1.0,2.0,84,0.00,,---,0.00,VWS V14.01,2013-03-01 10:09:00,
2013-03-01 05:14:00,53.1,48.4,29.91,NW,316,0.0,2.0,84,0.00,,---,0.00,VWS V14.01,2013-03-01 10:14:00,
2013-03-01 05:19:00,52.9,48.2,29.91,NW,326,0.0,2.0,84,0.00,,---,0.00,VWS V14.01,2013-03-01 10:19:00,
2013-03-01 05:24:00,52.7,48.3,29.91,NNW,339,0.0,2.0,85,0.00,,---,0.00,VWS V14.01,2013-03-01 10:24:00,
2013-03-01 05:29:00,52.4,48.0,29.92,WSW,249,0.0,2.0,85,0.00,,---,0.00,VWS V14.01,2013-03-01 10:29:00,
2013-03-01 05:34:00,52.2,48.2,29.92,West,259,0.0,0.0,86,0.00,,---,0.00,VWS V14.01,2013-03-01 10:34:00,
2013-03-01 05:39:00,52.1,48.0,29.92,WSW,257,0.0,1.0,86,0.00,,---,0.00,VWS V14.01,2013-03-01 10:39:00,
2013-03-01 05:44:00,52.0,48.3,29.92,WSW,253,0.0,1.0,87,0.00,,---,0.00,VWS V14.01,2013-03-01 10:44:00,
2013-03-01 05:49:00,51.9,48.2,29.92,WNW,295,0.0,1.0,87,0.00,,---,0.00,VWS V14.01,2013-03-01 10:49:00,
2013-03-01 05:54:00,51.8,48.1,29.92,WNW,293,0.0,1.0,87,0.00,,---,0.00,VWS V14.01,2013-03-01 10:54:00,
2013-03-01 06:00:00,51.7,48.0,29.93,WNW,287,0.0,1.0,87,0.00,,---,0.00,VWS V14.01,2013-03-01 11:00:00,
2013-03-01 06:05:00,51.6,47.9,29.93,WNW,287,0.0,0.0,87,0.00,,---,0.00,VWS V14.01,2013-03-01 11:05:00,
2013-03-01 06:10:00,51.5,47.8,29.93,WNW,287,1.0,1.0,87,0.00,,---,0.00,VWS V14.01,2013-03-01 11:10:00,
2013-03-01 06:15:00,51.4,47.7,29.93,WNW,287,0.0,1.0,87,0.00,,---,0.00,VWS V14.01,2013-03-01 11:15:00,
2013-03-01 06:20:00,51.2,47.8,29.94,WNW,287,0.0,1.0,88,0.00,,---,0.00,VWS V14.01,2013-03-01 11:20:00,
2013-03-01 06:25:00,51.2,47.8,29.94,WNW,287,0.0,1.0,88,0.00,,---,0.00,VWS V14.01,2013-03-01 11:25:00,
2013-03-01 06:30:00,51.3,47.9,29.94,WNW,298,0.0,1.0,88,0.00,,---,0.00,VWS V14.01,2013-03-01 11:30:00,
2013-03-01 06:35:00,51.4,48.0,29.94,NNW,338,0.0,1.0,88,0.00,,---,0.00,VWS V14.01,2013-03-01 11:35:00,
2013-03-01 06:40:00,51.5,48.1,29.95,NNW,341,1.0,1.0,88,0.00,,---,0.00,VWS V14.01,2013-03-01 11:40:00,
2013-03-01 06:45:00,51.5,48.1,29.95,NW,305,1.0,4.0,88,0.00,,---,0.00,VWS V14.01,2013-03-01 11:45:00,
2013-03-01 06:50:00,51.6,47.9,29.95,WNW,293,1.0,4.0,87,0.00,,---,0.00,VWS V14.01,2013-03-01 11:50:00,
2013-03-01 06:55:00,51.6,47.9,29.95,NW,322,0.0,4.0,87,0.00,,---,0.00,VWS V14.01,2013-03-01 11:55:00,
2013-03-01 07:00:00,51.7,47.7,29.96,NW,304,0.0,4.0,86,0.00,,---,0.00,VWS V14.01,2013-03-01 12:00:00,
2013-03-01 07:05:00,51.7,47.7,29.96,WNW,295,0.0,2.0,86,0.00,,---,0.00,VWS V14.01,2013-03-01 12:05:00,
2013-03-01 07:11:00,51.7,47.3,29.96,NW,321,2.0,6.0,85,0.00,,---,0.00,VWS V14.01,2013-03-01 12:11:00,
2013-03-01 07:16:00,51.8,47.1,29.96,West,264,1.0,6.0,84,0.00,,---,0.00,VWS V14.01,2013-03-01 12:16:00,
2013-03-01 07:21:00,51.9,46.9,29.96,NW,314,0.0,6.0,83,0.00,,---,0.00,VWS V14.01,2013-03-01 12:21:00,
2013-03-01 07:26:00,52.0,47.0,29.97,SW,217,3.0,6.0,83,0.00,,---,0.00,VWS V14.01,2013-03-01 12:26:00,
2013-03-01 07:31:00,52.0,46.7,29.97,NNW,328,1.0,6.0,82,0.00,,---,0.00,VWS V14.01,2013-03-01 12:31:00,
2013-03-01 07:36:00,52.0,46.7,29.97,NW,321,2.0,6.0,82,0.00,,---,0.00,VWS V14.01,2013-03-01 12:36:00,
2013-03-01 07:41:00,52.1,47.1,29.97,West,278,0.0,6.0,83,0.00,,---,0.00,VWS V14.01,2013-03-01 12:41:00,
2013-03-01 07:46:00,52.0,46.7,29.97,North,11,0.0,6.0,82,0.00,,---,0.00,VWS V14.01,2013-03-01 12:46:00,
2013-03-01 07:51:00,52.0,46.7,29.97,NW,311,0.0,6.0,82,0.00,,---,0.00,VWS V14.01,2013-03-01 12:51:00,
2013-03-01 07:56:00,52.1,46.5,29.97,NNW,332,0.0,6.0,81,0.00,,---,0.00,VWS V14.01,2013-03-01 12:56:00,
2013-03-01 08:02:00,52.3,47.0,29.97,NW,311,1.0,6.0,82,0.00,,---,0.00,VWS V14.01,2013-03-01 13:02:00,
2013-03-01 08:07:00,52.4,46.8,29.97,NW,315,0.0,2.0,81,0.00,,---,0.00,VWS V14.01,2013-03-01 13:07:00,
2013-03-01 08:12:00,52.6,46.6,29.97,NNW,332,0.0,3.0,80,0.00,,---,0.00,VWS V14.01,2013-03-01 13:12:00,
2013-03-01 08:17:00,52.7,46.7,29.97,NNE,23,2.0,3.0,80,0.00,,---,0.00,VWS V14.01,2013-03-01 13:17:00,
2013-03-01 08:22:00,52.9,46.2,29.97,NNW,339,0.0,3.0,78,0.00,,---,0.00,VWS V14.01,2013-03-01 13:22:00,
2013-03-01 08:27:00,53.1,46.4,29.98,NW,309,0.0,3.0,78,0.00,,---,0.00,VWS V14.01,2013-03-01 13:27:00,
2013-03-01 08:32:00,53.4,46.4,29.98,North,11,1.0,3.0,77,0.00,,---,0.00,VWS V14.01,2013-03-01 13:32:00,
2013-03-01 08:37:00,53.7,46.7,29.98,NNW,347,1.0,3.0,77,0.00,,---,0.00,VWS V14.01,2013-03-01 13:37:00,
2013-03-01 08:42:00,53.7,46.0,29.98,NNW,328,2.0,4.0,75,0.00,,---,0.00,VWS V14.01,2013-03-01 13:42:00,
2013-03-01 08:47:00,53.9,46.2,29.98,NNE,23,0.0,4.0,75,0.00,,---,0.00,VWS V14.01,2013-03-01 13:47:00,
2013-03-01 08:52:00,54.3,46.2,29.98,NNW,342,0.0,4.0,74,0.00,,---,0.00,VWS V14.01,2013-03-01 13:52:00,
2013-03-01 08:57:00,54.8,46.0,29.98,NNW,332,0.0,4.0,72,0.00,,---,0.00,VWS V14.01,2013-03-01 13:57:00,
2013-03-01 09:02:00,55.0,45.8,29.98,WNW,283,0.0,1.0,71,0.00,,---,0.00,VWS V14.01,2013-03-01 14:02:00,
2013-03-01 09:07:00,54.9,44.9,29.98,NW,325,0.0,8.0,69,0.00,,---,0.00,VWS V14.01,2013-03-01 14:07:00,
2013-03-01 09:12:00,54.9,45.3,29.99,NNW,342,0.0,8.0,70,0.00,,---,0.00,VWS V14.01,2013-03-01 14:12:00,
2013-03-01 09:17:00,55.2,45.6,29.99,North,350,1.0,8.0,70,0.00,,---,0.00,VWS V14.01,2013-03-01 14:17:00,
2013-03-01 09:22:00,55.2,44.5,29.99,NW,323,2.0,8.0,67,0.00,,---,0.00,VWS V14.01,2013-03-01 14:22:00,
2013-03-01 09:27:00,55.2,44.8,29.99,NNE,25,1.0,8.0,68,0.00,,---,0.00,VWS V14.01,2013-03-01 14:27:00,
2013-03-01 09:32:00,55.2,44.0,29.99,NW,326,0.0,1.0,66,0.00,,---,0.00,VWS V14.01,2013-03-01 14:32:00,
2013-03-01 09:37:00,55.4,44.2,29.99,West,277,1.0,4.0,66,0.00,,---,0.00,VWS V14.01,2013-03-01 14:37:00,
2013-03-01 09:43:00,55.3,44.2,29.99,NW,309,3.0,5.0,66,0.00,,---,0.00,VWS V14.01,2013-03-01 14:43:00,
2013-03-01 09:48:00,55.1,44.0,29.99,NW,319,2.0,6.0,66,0.00,,---,0.00,VWS V14.01,2013-03-01 14:48:00,
2013-03-01 09:53:00,55.1,44.3,29.98,NW,322,1.0,6.0,67,0.00,,---,0.00,VWS V14.01,2013-03-01 14:53:00,
2013-03-01 09:58:00,55.5,43.9,29.98,NNW,335,6.0,7.0,65,0.00,,---,0.00,VWS V14.01,2013-03-01 14:58:00,
2013-03-01 10:03:00,56.2,43.8,29.98,WNW,298,5.0,5.0,63,0.00,,---,0.00,VWS V14.01,2013-03-01 15:03:00,
2013-03-01 10:08:00,57.2,45.6,29.98,NNW,335,3.0,5.0,65,0.00,,---,0.00,VWS V14.01,2013-03-01 15:08:00,
2013-03-01 10:13:00,57.6,44.7,29.98,NE,48,0.0,6.0,62,0.00,,---,0.00,VWS V14.01,2013-03-01 15:13:00,
2013-03-01 10:18:00,57.7,44.8,29.98,NNW,335,1.0,6.0,62,0.00,,---,0.00,VWS V14.01,2013-03-01 15:18:00,
2013-03-01 10:23:00,58.6,46.1,29.98,NNW,346,1.0,6.0,63,0.00,,---,0.00,VWS V14.01,2013-03-01 15:23:00,
2013-03-01 10:28:00,59.3,45.9,29.98,North,350,1.0,6.0,61,0.00,,---,0.00,VWS V14.01,2013-03-01 15:28:00,
2013-03-01 10:33:00,60.0,44.3,29.98,NW,321,1.0,4.0,56,0.00,,---,0.00,VWS V14.01,2013-03-01 15:33:00,
2013-03-01 10:38:00,60.3,43.1,29.99,North,356,3.0,5.0,53,0.00,,---,0.00,VWS V14.01,2013-03-01 15:38:00,
2013-03-01 10:43:00,60.5,42.8,29.98,SE,127,0.0,5.0,52,0.00,,---,0.00,VWS V14.01,2013-03-01 15:43:00,
2013-03-01 10:48:00,60.8,42.6,29.98,West,277,3.0,6.0,51,0.00,,---,0.00,VWS V14.01,2013-03-01 15:48:00,
2013-03-01 10:53:00,61.2,42.4,29.98,NNE,19,3.0,6.0,50,0.00,,---,0.00,VWS V14.01,2013-03-01 15:53:00,
2013-03-01 10:58:00,61.3,41.5,29.98,North,349,3.0,7.0,48,0.00,,---,0.00,VWS V14.01,2013-03-01 15:58:00,
2013-03-01 11:04:00,61.6,42.3,29.98,WSW,253,1.0,2.0,49,0.00,,---,0.00,VWS V14.01,2013-03-01 16:04:00,
2013-03-01 11:09:00,62.4,42.5,29.97,South,182,4.0,5.0,48,0.00,,---,0.00,VWS V14.01,2013-03-01 16:09:00,
2013-03-01 11:14:00,63.4,42.8,29.98,NNE,30,4.0,6.0,47,0.00,,---,0.00,VWS V14.01,2013-03-01 16:14:00,
2013-03-01 11:19:00,62.9,41.8,29.98,NW,321,6.0,9.0,46,0.00,,---,0.00,VWS V14.01,2013-03-01 16:19:00,
2013-03-01 11:24:00,63.3,42.8,29.98,WSW,246,2.0,9.0,47,0.00,,---,0.00,VWS V14.01,2013-03-01 16:24:00,
2013-03-01 11:29:00,63.9,42.7,29.98,WSW,246,0.0,9.0,46,0.00,,---,0.00,VWS V14.01,2013-03-01 16:29:00,
2013-03-01 11:34:00,64.0,43.9,29.98,NNW,328,2.0,4.0,48,0.00,,---,0.00,VWS V14.01,2013-03-01 16:34:00,
2013-03-01 11:39:00,64.3,43.7,29.98,WSW,245,3.0,4.0,47,0.00,,---,0.00,VWS V14.01,2013-03-01 16:39:00,
2013-03-01 11:44:00,64.4,42.6,29.98,West,259,3.0,6.0,45,0.00,,---,0.00,VWS V14.01,2013-03-01 16:44:00,
2013-03-01 11:49:00,64.4,42.6,29.98,NW,316,3.0,7.0,45,0.00,,---,0.00,VWS V14.01,2013-03-01 16:49:00,
2013-03-01 11:54:00,64.5,42.7,29.98,WNW,296,4.0,7.0,45,0.00,,---,0.00,VWS V14.01,2013-03-01 16:54:00,
2013-03-01 11:59:00,64.3,41.3,29.97,NE,36,1.0,10.0,43,0.00,,---,0.00,VWS V14.01,2013-03-01 16:59:00,
2013-03-01 12:04:00,63.8,40.9,29.97,NNE,13,2.0,8.0,43,0.00,,---,0.00,VWS V14.01,2013-03-01 17:04:00,
2013-03-01 12:09:00,63.9,41.6,29.97,ENE,65,4.0,11.0,44,0.00,,---,0.00,VWS V14.01,2013-03-01 17:09:00,
2013-03-01 12:14:00,63.6,39.5,29.96,SW,221,2.0,11.0,41,0.00,,---,0.00,VWS V14.01,2013-03-01 17:14:00,
2013-03-01 12:19:00,63.8,39.7,29.97,NW,307,1.0,11.0,41,0.00,,---,0.00,VWS V14.01,2013-03-01 17:19:00,
2013-03-01 12:25:00,63.9,39.8,29.96,West,262,2.0,11.0,41,0.00,,---,0.00,VWS V14.01,2013-03-01 17:25:00,
2013-03-01 12:30:00,63.9,39.8,29.96,WSW,240,2.0,11.0,41,0.00,,---,0.00,VWS V14.01,2013-03-01 17:30:00,
2013-03-01 12:35:00,64.2,40.0,29.96,West,276,0.0,5.0,41,0.00,,---,0.00,VWS V14.01,2013-03-01 17:35:00,
2013-03-01 12:40:00,64.3,38.2,29.95,WNW,300,2.0,8.0,38,0.00,,---,0.00,VWS V14.01,2013-03-01 17:40:00,
2013-03-01 12:45:00,64.2,38.8,29.95,SE,146,1.0,8.0,39,0.00,,---,0.00,VWS V14.01,2013-03-01 17:45:00,
2013-03-01 12:50:00,64.3,38.8,29.94,NNW,342,0.0,8.0,39,0.00,,---,0.00,VWS V14.01,2013-03-01 17:50:00,
2013-03-01 12:55:00,64.2,38.1,29.95,NW,325,2.0,8.0,38,0.00,,---,0.00,VWS V14.01,2013-03-01 17:55:00,
2013-03-01 13:00:00,64.3,37.5,29.94,South,181,2.0,8.0,37,0.00,,---,0.00,VWS V14.01,2013-03-01 18:00:00,
2013-03-01 13:05:00,64.2,37.4,29.94,NW,307,6.0,9.0,37,0.00,,---,0.00,VWS V14.01,2013-03-01 18:05:00,
2013-03-01 13:10:00,63.7,37.6,29.94,South,187,0.0,9.0,38,0.00,,---,0.00,VWS V14.01,2013-03-01 18:10:00,
2013-03-01 13:15:00,63.5,37.5,29.94,East,84,0.0,9.0,38,0.00,,---,0.00,VWS V14.01,2013-03-01 18:15:00,
2013-03-01 13:20:00,63.1,37.1,29.93,NW,305,0.0,9.0,38,0.00,,---,0.00,VWS V14.01,2013-03-01 18:20:00,
2013-03-01 13:25:00,62.6,37.3,29.93,WNW,289,1.0,9.0,39,0.00,,---,0.00,VWS V14.01,2013-03-01 18:25:00,
2013-03-01 13:30:00,62.5,37.9,29.93,WNW,301,1.0,9.0,40,0.00,,---,0.00,VWS V14.01,2013-03-01 18:30:00,
2013-03-01 13:35:00,62.7,38.0,29.93,WSW,257,0.0,4.0,40,0.00,,---,0.00,VWS V14.01,2013-03-01 18:35:00,
2013-03-01 13:40:00,62.9,38.2,29.93,East,91,1.0,5.0,40,0.00,,---,0.00,VWS V14.01,2013-03-01 18:40:00,
2013-03-01 13:45:00,62.8,38.8,29.93,WNW,287,1.0,7.0,41,0.00,,---,0.00,VWS V14.01,2013-03-01 18:45:00,
2013-03-01 13:51:00,62.8,38.8,29.93,WSW,239,1.0,7.0,41,0.00,,---,0.00,VWS V14.01,2013-03-01 18:51:00,
2013-03-01 13:56:00,62.9,39.5,29.93,NW,309,4.0,7.0,42,0.00,,---,0.00,VWS V14.01,2013-03-01 18:56:00,
2013-03-01 14:01:00,62.6,38.6,29.92,WNW,295,1.0,7.0,41,0.00,,---,0.00,VWS V14.01,2013-03-01 19:01:00,
2013-03-01 14:06:00,62.2,38.2,29.92,East,84,1.0,8.0,41,0.00,,---,0.00,VWS V14.01,2013-03-01 19:06:00,
2013-03-01 14:11:00,61.9,38.6,29.92,WNW,288,1.0,8.0,42,0.00,,---,0.00,VWS V14.01,2013-03-01 19:11:00,
2013-03-01 14:16:00,61.7,37.8,29.92,West,264,2.0,8.0,41,0.00,,---,0.00,VWS V14.01,2013-03-01 19:16:00,
2013-03-01 14:21:00,61.6,38.9,29.92,NW,322,2.0,8.0,43,0.00,,---,0.00,VWS V14.01,2013-03-01 19:21:00,
2013-03-01 14:26:00,61.3,37.4,29.92,NW,314,2.0,8.0,41,0.00,,---,0.00,VWS V14.01,2013-03-01 19:26:00,
2013-03-01 14:31:00,61.0,38.4,29.92,WNW,291,2.0,8.0,43,0.00,,---,0.00,VWS V14.01,2013-03-01 19:31:00,
2013-03-01 14:36:00,60.9,38.3,29.92,SW,224,1.0,4.0,43,0.00,,---,0.00,VWS V14.01,2013-03-01 19:36:00,
2013-03-01 14:41:00,60.8,38.8,29.92,West,274,2.0,4.0,44,0.00,,---,0.00,VWS V14.01,2013-03-01 19:41:00,
2013-03-01 14:46:00,60.7,38.7,29.92,SSW,210,1.0,5.0,44,0.00,,---,0.00,VWS V14.01,2013-03-01 19:46:00,
2013-03-01 14:51:00,60.4,38.4,29.92,SW,233,1.0,5.0,44,0.00,,---,0.00,VWS V14.01,2013-03-01 19:51:00,
2013-03-01 14:56:00,60.3,38.9,29.92,West,260,4.0,6.0,45,0.00,,---,0.00,VWS V14.01,2013-03-01 19:56:00,
2013-03-01 15:01:00,60.3,40.0,29.92,West,266,1.0,6.0,47,0.00,,---,0.00,VWS V14.01,2013-03-01 20:01:00,
2013-03-01 15:06:00,60.3,39.5,29.92,NNE,23,0.0,3.0,46,0.00,,---,0.00,VWS V14.01,2013-03-01 20:06:00,
2013-03-01 15:12:00,60.3,39.5,29.91,West,264,3.0,3.0,46,0.00,,---,0.00,VWS V14.01,2013-03-01 20:12:00,
2013-03-01 15:17:00,60.1,39.3,29.92,SSW,212,1.0,4.0,46,0.00,,---,0.00,VWS V14.01,2013-03-01 20:17:00,
2013-03-01 15:22:00,60.1,39.3,29.92,SW,228,4.0,4.0,46,0.00,,---,0.00,VWS V14.01,2013-03-01 20:22:00,
2013-03-01 15:27:00,60.0,39.7,29.92,West,267,2.0,4.0,47,0.00,,---,0.00,VWS V14.01,2013-03-01 20:27:00,
2013-03-01 15:32:00,60.0,39.7,29.92,West,263,2.0,2.0,47,0.00,,---,0.00,VWS V14.01,2013-03-01 20:32:00,
2013-03-01 15:37:00,59.9,40.2,29.93,SW,231,1.0,5.0,48,0.00,,---,0.00,VWS V14.01,2013-03-01 20:37:00,
2013-03-01 15:42:00,59.8,40.1,29.93,SW,233,0.0,5.0,48,0.00,,---,0.00,VWS V14.01,2013-03-01 20:42:00,
2013-03-01 15:47:00,59.7,40.0,29.92,West,274,0.0,5.0,48,0.00,,---,0.00,VWS V14.01,2013-03-01 20:47:00,
2013-03-01 15:52:00,59.7,40.5,29.93,West,274,1.0,5.0,49,0.00,,---,0.00,VWS V14.01,2013-03-01 20:52:00,
2013-03-01 15:57:00,59.7,40.5,29.93,SSE,160,1.0,5.0,49,0.00,,---,0.00,VWS V14.01,2013-03-01 20:57:00,
2013-03-01 16:03:00,59.6,40.4,29.93,SW,225,0.0,0.0,49,0.00,,---,0.00,VWS V14.01,2013-03-01 21:03:00,
2013-03-01 16:08:00,59.6,41.0,29.93,WNW,288,1.0,2.0,50,0.00,,---,0.00,VWS V14.01,2013-03-01 21:08:00,
2013-03-01 16:13:00,59.5,40.3,29.92,SW,220,0.0,5.0,49,0.00,,---,0.00,VWS V14.01,2013-03-01 21:13:00,
2013-03-01 16:18:00,59.6,41.5,29.92,West,259,0.0,5.0,51,0.00,,---,0.00,VWS V14.01,2013-03-01 21:18:00,
2013-03-01 16:23:00,59.7,41.0,29.93,SW,224,0.0,5.0,50,0.00,,---,0.00,VWS V14.01,2013-03-01 21:23:00,
2013-03-01 16:28:00,59.7,40.5,29.92,NW,308,2.0,6.0,49,0.00,,---,0.00,VWS V14.01,2013-03-01 21:28:00,
2013-03-01 16:33:00,59.6,41.5,29.92,ESE,105,0.0,1.0,51,0.00,,---,0.00,VWS V14.01,2013-03-01 21:33:00,
2013-03-01 16:38:00,59.6,41.5,29.92,SSE,149,0.0,5.0,51,0.00,,---,0.00,VWS V14.01,2013-03-01 21:38:00,
2013-03-01 16:43:00,59.6,42.0,29.92,SW,229,0.0,5.0,52,0.00,,---,0.00,VWS V14.01,2013-03-01 21:43:00,
2013-03-01 16:48:00,59.6,42.0,29.92,West,260,0.0,5.0,52,0.00,,---,0.00,VWS V14.01,2013-03-01 21:48:00,
2013-03-01 16:53:00,59.5,42.4,29.93,WSW,255,0.0,5.0,53,0.00,,---,0.00,VWS V14.01,2013-03-01 21:53:00,
2013-03-01 16:58:00,59.5,42.9,29.92,SW,228,2.0,5.0,54,0.00,,---,0.00,VWS V14.01,2013-03-01 21:58:00,
2013-03-01 17:03:00,59.4,42.3,29.92,WSW,257,1.0,2.0,53,0.00,,---,0.00,VWS V14.01,2013-03-01 22:03:00,
2013-03-01 17:08:00,59.3,42.2,29.92,West,274,0.0,3.0,53,0.00,,---,0.00,VWS V14.01,2013-03-01 22:08:00,
2013-03-01 17:13:00,59.3,43.2,29.92,WSW,245,0.0,3.0,55,0.00,,---,0.00,VWS V14.01,2013-03-01 22:13:00,
2013-03-01 17:18:00,59.2,42.6,29.92,SW,219,0.0,3.0,54,0.00,,---,0.00,VWS V14.01,2013-03-01 22:18:00,
2013-03-01 17:23:00,59.1,42.5,29.92,SSW,204,0.0,3.0,54,0.00,,---,0.00,VWS V14.01,2013-03-01 22:23:00,
2013-03-01 17:28:00,59.1,42.5,29.93,SSW,206,0.0,3.0,54,0.00,,---,0.00,VWS V14.01,2013-03-01 22:28:00,
2013-03-01 17:33:00,59.0,42.9,29.93,WSW,246,0.0,2.0,55,0.00,,---,0.00,VWS V14.01,2013-03-01 22:33:00,
2013-03-01 17:38:00,58.9,42.8,29.93,SW,231,0.0,2.0,55,0.00,,---,0.00,VWS V14.01,2013-03-01 22:38:00,
2013-03-01 17:43:00,58.8,43.2,29.93,SSW,210,0.0,3.0,56,0.00,,---,0.00,VWS V14.01,2013-03-01 22:43:00,
2013-03-01 17:49:00,58.7,43.1,29.93,SW,236,2.0,3.0,56,0.00,,---,0.00,VWS V14.01,2013-03-01 22:49:00,
2013-03-01 17:54:00,58.6,43.0,29.93,SSW,207,0.0,3.0,56,0.00,,---,0.00,VWS V14.01,2013-03-01 22:54:00,
2013-03-01 17:59:00,58.5,43.3,29.93,SSW,212,1.0,3.0,57,0.00,,---,0.00,VWS V14.01,2013-03-01 22:59:00,
2013-03-01 18:04:00,58.4,43.2,29.94,West,269,3.0,5.0,57,0.00,,---,0.00,VWS V14.01,2013-03-01 23:04:00,
2013-03-01 18:09:00,58.3,43.6,29.93,SSE,153,0.0,5.0,58,0.00,,---,0.00,VWS V14.01,2013-03-01 23:09:00,
2013-03-01 18:14:00,58.2,43.5,29.93,SSW,192,0.0,5.0,58,0.00,,---,0.00,VWS V14.01,2013-03-01 23:14:00,
2013-03-01 18:19:00,58.0,43.8,29.93,SW,232,0.0,5.0,59,0.00,,---,0.00,VWS V14.01,2013-03-01 23:19:00,
2013-03-01 18:24:00,58.0,44.2,29.93,SW,215,0.0,5.0,60,0.00,,---,0.00,VWS V14.01,2013-03-01 23:24:00,
2013-03-01 18:29:00,57.8,43.6,29.93,SW,225,0.0,5.0,59,0.00,,---,0.00,VWS V14.01,2013-03-01 23:29:00,
2013-03-01 18:34:00,57.8,44.0,29.94,SW,225,0.0,0.0,60,0.00,,---,0.00,VWS V14.01,2013-03-01 23:34:00,
2013-03-01 18:39:00,57.7,43.9,29.94,WSW,243,0.0,1.0,60,0.00,,---,0.00,VWS V14.01,2013-03-01 23:39:00,
2013-03-01 18:44:00,57.6,43.8,29.94,WSW,243,1.0,2.0,60,0.00,,---,0.00,VWS V14.01,2013-03-01 23:44:00,
2013-03-01 18:49:00,57.6,44.3,29.94,WSW,238,0.0,2.0,61,0.00,,---,0.00,VWS V14.01,2013-03-01 23:49:00,
2013-03-01 18:54:00,57.6,43.8,29.95,WSW,249,0.0,2.0,60,0.00,,---,0.00,VWS V14.01,2013-03-01 23:54:00,
2013-03-01 18:59:00,57.5,44.2,29.94,South,185,0.0,2.0,61,0.00,,---,0.00,VWS V14.01,2013-03-01 23:59:00,
2013-03-01 19:04:00,57.5,44.2,29.95,South,185,0.0,0.0,61,0.00,,---,0.00,VWS V14.01,2013-03-02 00:04:00,
2013-03-01 19:09:00,57.4,44.5,29.95,South,184,0.0,0.0,62,0.00,,---,0.00,VWS V14.01,2013-03-02 00:09:00,
2013-03-01 19:14:00,57.4,44.5,29.95,SW,224,0.0,2.0,62,0.00,,---,0.00,VWS V14.01,2013-03-02 00:14:00,
2013-03-01 19:20:00,57.3,44.8,29.95,SSW,210,0.0,2.0,63,0.00,,---,0.00,VWS V14.01,2013-03-02 00:20:00,
2013-03-01 19:25:00,57.3,44.4,29.95,SSW,210,0.0,2.0,62,0.00,,---,0.00,VWS V14.01,2013-03-02 00:25:00,
2013-03-01 19:30:00,57.3,44.8,29.95,SW,236,0.0,0.0,63,0.00,,---,0.00,VWS V14.01,2013-03-02 00:30:00,
2013-03-01 19:35:00,57.2,44.7,29.95,SW,235,0.0,0.0,63,0.00,,---,0.00,VWS V14.01,2013-03-02 00:35:00,
2013-03-01 19:40:00,57.1,44.6,29.95,SW,233,0.0,2.0,63,0.00,,---,0.00,VWS V14.01,2013-03-02 00:40:00,
2013-03-01 19:45:00,57.1,44.6,29.95,South,190,0.0,2.0,63,0.00,,---,0.00,VWS V14.01,2013-03-02 00:45:00,
2013-03-01 19:50:00,57.2,44.7,29.95,SW,225,0.0,2.0,63,0.00,,---,0.00,VWS V14.01,2013-03-02 00:50:00,
2013-03-01 19:55:00,57.1,44.6,29.95,SW,226,0.0,2.0,63,0.00,,---,0.00,VWS V14.01,2013-03-02 00:55:00,
2013-03-01 20:00:00,57.1,45.0,29.95,SW,215,0.0,2.0,64,0.00,,---,0.00,VWS V14.01,2013-03-02 01:00:00,
2013-03-01 20:05:00,57.0,44.5,29.95,West,260,0.0,2.0,63,0.00,,---,0.00,VWS V14.01,2013-03-02 01:05:00,
2013-03-01 20:11:00,57.0,44.5,29.96,SW,222,0.0,2.0,63,0.00,,---,0.00,VWS V14.01,2013-03-02 01:11:00,
2013-03-01 20:16:00,57.0,44.1,29.95,SSW,193,0.0,2.0,62,0.00,,---,0.00,VWS V14.01,2013-03-02 01:16:00,
2013-03-01 20:21:00,57.0,44.1,29.95,SW,233,2.0,3.0,62,0.00,,---,0.00,VWS V14.01,2013-03-02 01:21:00,
2013-03-01 20:26:00,56.9,44.5,29.95,SSE,160,0.0,3.0,63,0.00,,---,0.00,VWS V14.01,2013-03-02 01:26:00,
2013-03-01 20:31:00,56.9,44.0,29.95,WSW,246,1.0,3.0,62,0.00,,---,0.00,VWS V14.01,2013-03-02 01:31:00,
2013-03-01 20:36:00,56.9,44.5,29.96,SW,217,0.0,2.0,63,0.00,,---,0.00,VWS V14.01,2013-03-02 01:36:00,
2013-03-01 20:41:00,56.9,44.5,29.97,WNW,284,1.0,2.0,63,0.00,,---,0.00,VWS V14.01,2013-03-02 01:41:00,
2013-03-01 20:46:00,56.9,44.0,29.97,South,180,0.0,3.0,62,0.00,,---,0.00,VWS V14.01,2013-03-02 01:46:00,
2013-03-01 20:51:00,56.9,44.0,29.97,West,275,0.0,3.0,62,0.00,,---,0.00,VWS V14.01,2013-03-02 01:51:00,
2013-03-01 20:56:00,56.9,44.0,29.97,SW,225,0.0,4.0,62,0.00,,---,0.00,VWS V14.01,2013-03-02 01:56:00,
2013-03-01 21:02:00,56.8,43.9,29.97,WSW,256,0.0,4.0,62,0.00,,---,0.00,VWS V14.01,2013-03-02 02:02:00,
2013-03-01 21:07:00,56.8,44.3,29.97,West,280,0.0,4.0,63,0.00,,---,0.00,VWS V14.01,2013-03-02 02:07:00,
2013-03-01 21:12:00,56.8,43.9,29.97,WSW,243,3.0,5.0,62,0.00,,---,0.00,VWS V14.01,2013-03-02 02:12:00,
2013-03-01 21:17:00,56.8,43.5,29.97,SSW,200,0.0,5.0,61,0.00,,---,0.00,VWS V14.01,2013-03-02 02:17:00,
2013-03-01 21:22:00,56.8,43.5,29.97,SSW,200,0.0,5.0,61,0.00,,---,0.00,VWS V14.01,2013-03-02 02:22:00,
2013-03-01 21:27:00,56.8,43.5,29.98,SW,229,0.0,6.0,61,0.00,,---,0.00,VWS V14.01,2013-03-02 02:27:00,
2013-03-01 21:32:00,56.7,42.5,29.97,WSW,250,0.0,1.0,59,0.00,,---,0.00,VWS V14.01,2013-03-02 02:32:00,
2013-03-01 21:37:00,56.7,42.5,29.97,SSE,166,1.0,6.0,59,0.00,,---,0.00,VWS V14.01,2013-03-02 02:37:00,
2013-03-01 21:42:00,56.6,42.5,29.97,WSW,255,1.0,6.0,59,0.00,,---,0.00,VWS V14.01,2013-03-02 02:42:00,
2013-03-01 21:47:00,56.5,42.4,29.98,SW,223,1.0,7.0,59,0.00,,---,0.00,VWS V14.01,2013-03-02 02:47:00,
2013-03-01 21:52:00,56.5,42.4,29.98,WNW,298,1.0,7.0,59,0.00,,---,0.00,VWS V14.01,2013-03-02 02:52:00,
2013-03-01 21:57:00,56.3,42.2,29.97,NW,309,0.0,7.0,59,0.00,,---,0.00,VWS V14.01,2013-03-02 02:57:00,
2013-03-01 22:02:00,56.3,42.2,29.98,NW,305,0.0,2.0,59,0.00,,---,0.00,VWS V14.01,2013-03-02 03:02:00,
2013-03-01 22:07:00,56.2,42.5,29.98,East,94,2.0,2.0,60,0.00,,---,0.00,VWS V14.01,2013-03-02 03:07:00,
2013-03-01 22:12:00,56.1,42.4,29.99,South,184,0.0,4.0,60,0.00,,---,0.00,VWS V14.01,2013-03-02 03:12:00,
2013-03-01 22:17:00,56.0,42.3,29.99,SE,142,0.0,4.0,60,0.00,,---,0.00,VWS V14.01,2013-03-02 03:17:00,
2013-03-01 22:22:00,55.9,42.2,29.99,ESE,106,0.0,4.0,60,0.00,,---,0.00,VWS V14.01,2013-03-02 03:22:00,
2013-03-01 22:28:00,55.8,41.3,29.99,ENE,64,0.0,7.0,58,0.00,,---,0.00,VWS V14.01,2013-03-02 03:28:00,
2013-03-01 22:33:00,55.7,40.7,29.99,ESE,111,0.0,1.0,57,0.00,,---,0.00,VWS V14.01,2013-03-02 03:33:00,
2013-03-01 22:38:00,55.6,40.2,29.99,WSW,248,4.0,9.0,56,0.00,,---,0.00,VWS V14.01,2013-03-02 03:38:00,
2013-03-01 22:43:00,55.5,40.1,29.99,SSW,211,3.0,9.0,56,0.00,,---,0.00,VWS V14.01,2013-03-02 03:43:00,
2013-03-01 22:48:00,55.4,39.5,29.99,NE,40,0.0,9.0,55,0.00,,---,0.00,VWS V14.01,2013-03-02 03:48:00,
2013-03-01 22:53:00,55.4,39.0,29.99,North,351,0.0,9.0,54,0.00,,---,0.00,VWS V14.01,2013-03-02 03:53:00,
2013-03-01 22:58:00,55.3,39.0,29.99,North,358,0.0,9.0,54,0.00,,---,0.00,VWS V14.01,2013-03-02 03:58:00,
2013-03-01 23:03:00,55.2,39.3,29.99,NNW,331,1.0,2.0,55,0.00,,---,0.00,VWS V14.01,2013-03-02 04:03:00,
2013-03-01 23:08:00,55.1,39.2,29.98,NNE,22,0.0,8.0,55,0.00,,---,0.00,VWS V14.01,2013-03-02 04:08:00,
2013-03-01 23:13:00,55.0,39.2,29.98,ESE,111,1.0,8.0,55,0.00,,---,0.00,VWS V14.01,2013-03-02 04:13:00,
2013-03-01 23:18:00,54.9,39.5,29.98,WSW,243,1.0,8.0,56,0.00,,---,0.00,VWS V14.01,2013-03-02 04:18:00,
2013-03-01 23:23:00,54.8,39.4,29.98,WNW,295,1.0,8.0,56,0.00,,---,0.00,VWS V14.01,2013-03-02 04:23:00,
2013-03-01 23:28:00,54.7,39.8,29.98,SSW,195,0.0,8.0,57,0.00,,---,0.00,VWS V14.01,2013-03-02 04:28:00,
2013-03-01 23:33:00,54.6,39.7,29.98,West,281,0.0,1.0,57,0.00,,---,0.00,VWS V14.01,2013-03-02 04:33:00,
2013-03-01 23:38:00,54.6,40.1,29.98,WSW,250,1.0,3.0,58,0.00,,---,0.00,VWS V14.01,2013-03-02 04:38:00,
2013-03-01 23:43:00,54.5,40.0,29.98,South,191,0.0,4.0,58,0.00,,---,0.00,VWS V14.01,2013-03-02 04:43:00,
2013-03-01 23:48:00,54.4,40.0,29.99,SE,141,0.0,5.0,58,0.00,,---,0.00,VWS V14.01,2013-03-02 04:48:00,
2013-03-01 23:53:00,54.4,40.4,29.99,West,274,1.0,5.0,59,0.00,,---,0.00,VWS V14.01,2013-03-02 04:53:00,
2013-03-01 23:58:00,54.3,40.7,29.99,WNW,301,0.0,5.0,60,0.00,,---,0.00,VWS V14.01,2013-03-02 04:58:00,